Location: Unspecified
(0.0000°N, 0.0000°E)
Time: 03:14:48
(UTC+00:00)

N. Korean satellite - Pass Details

Date: 12 November 2019
Orbit: 456 x 506 km, 97.2° (Epoch: 10 November)

Event Time Altitude Azimuth Distance (km) Brightness Sun altitude
Rises 04:37:31 0° 46° (NE) 2,576 10.6 -15.8°
Reaches altitude 10° 04:40:50 10° 79° (E) 1,687 10.3 -15.1°
Maximum altitude 04:42:10 12° 101° (E) 1,580 10.5 -14.7°
Drops below altitude 10° 04:43:29 10° 123° (ESE) 1,681 10.6 -14.4°
Sets 04:46:46 0° 156° (SSE) 2,553 10.9 -13.6°
